Location: Dresden
(51.0483°N, 13.7137°E)
Time: 12:24:08
(UTC+01:00)

ISS - Pass Details

Date: 12 November 2017
Orbit: 402 x 407 km, 51.6° (Epoch: 24 November)

Event Time Altitude Azimuth Distance (km) Brightness Sun altitude
Exits shadow 04:19:50 20° 89° (E) 1,009 -1.1 -27.7°
Drops below altitude 10° 04:20:57 10° 91° (E) 1,457 0.0 -27.5°
Sets 04:23:02 0° 92° (E) 2,316 1.3 -27.2°
